Time,TemperatureF,DewpointF,PressureIn,WindDirection,WindDirectionDegrees,WindSpeedMPH,WindSpeedGustMPH,Humidity,HourlyPrecipIn,Conditions,Clouds,dailyrainin,SoftwareType,DateUTC
2013-03-07 00:00:00,38.8,27.3,29.86,East,90,3.5,3.5,63,0.00,CLR,,0.00,WeatherDisplay:10.37,2013-03-07 05:00:00,
2013-03-07 00:03:00,38.8,27.3,29.86,East,90,3.5,3.5,63,0.00,CLR,,0.00,WeatherDisplay:10.37,2013-03-07 05:03:00,
2013-03-07 00:08:00,38.8,27.3,29.85,SE,135,4.7,4.7,63,0.00,CLR,,0.00,WeatherDisplay:10.37,2013-03-07 05:08:00,
2013-03-07 00:13:00,38.8,27.3,29.85,ENE,68,8.1,8.1,63,0.00,CLR,,0.00,WeatherDisplay:10.37,2013-03-07 05:13:00,
2013-03-07 00:18:00,38.8,27.3,29.85,ESE,112,4.6,4.6,63,0.00,CLR,,0.00,WeatherDisplay:10.37,2013-03-07 05:18:00,
2013-03-07 00:23:00,38.8,27.3,29.85,SE,135,4.6,4.6,63,0.00,CLR,,0.00,WeatherDisplay:10.37,2013-03-07 05:23:00,
2013-03-07 00:28:00,38.8,27.3,29.85,ENE,68,9.2,9.4,63,0.00,CLR,,0.00,WeatherDisplay:10.37,2013-03-07 05:28:00,
2013-03-07 00:33:00,38.8,27.3,29.85,East,90,6.9,6.9,63,0.00,CLR,,0.00,WeatherDisplay:10.37,2013-03-07 05:33:00,
2013-03-07 00:38:00,38.7,27.1,29.85,NNE,22,2.4,2.4,63,0.00,CLR,,0.00,WeatherDisplay:10.37,2013-03-07 05:38:00,
2013-03-07 00:43:00,38.7,27.1,29.85,NNE,22,2.3,2.3,63,0.00,CLR,,0.00,WeatherDisplay:10.37,2013-03-07 05:43:00,
2013-03-07 00:48:00,38.5,27.0,29.85,NW,315,5.8,5.8,63,0.00,CLR,,0.00,WeatherDisplay:10.37,2013-03-07 05:48:00,
2013-03-07 00:53:00,38.5,27.0,29.85,ENE,68,5.8,5.8,63,0.00,CLR,,0.00,WeatherDisplay:10.37,2013-03-07 05:53:00,
2013-03-07 00:58:00,38.5,27.0,29.85,East,90,6.9,6.9,63,0.00,CLR,,0.00,WeatherDisplay:10.37,2013-03-07 05:58:00,
2013-03-07 01:03:00,38.5,27.0,29.85,North,0,2.3,2.3,63,0.00,CLR,,0.00,WeatherDisplay:10.37,2013-03-07 06:03:00,
2013-03-07 01:08:00,38.5,27.0,29.85,East,90,5.9,5.9,63,0.00,CLR,,0.00,WeatherDisplay:10.37,2013-03-07 06:08:00,
2013-03-07 01:13:00,38.5,27.0,29.86,NE,45,6.9,6.9,63,0.00,CLR,,0.00,WeatherDisplay:10.37,2013-03-07 06:13:00,
2013-03-07 01:18:00,38.5,27.0,29.85,ENE,68,7.6,7.6,63,0.00,CLR,,0.00,WeatherDisplay:10.37,2013-03-07 06:18:00,
2013-03-07 01:23:00,38.5,27.4,29.86,SSE,158,4.6,4.6,64,0.00,CLR,,0.00,WeatherDisplay:10.37,2013-03-07 06:23:00,
2013-03-07 01:28:00,38.5,27.4,29.86,ENE,68,5.8,5.8,64,0.00,CLR,,0.00,WeatherDisplay:10.37,2013-03-07 06:28:00,
2013-03-07 01:33:00,38.3,27.2,29.85,SE,135,5.8,5.8,64,0.00,CLR,,0.00,WeatherDisplay:10.37,2013-03-07 06:33:00,
2013-03-07 01:38:00,38.3,27.2,29.86,ESE,112,2.3,2.3,64,0.00,CLR,,0.00,WeatherDisplay:10.37,2013-03-07 06:38:00,
2013-03-07 01:43:00,38.3,27.2,29.85,ENE,68,4.6,4.6,64,0.00,CLR,,0.00,WeatherDisplay:10.37,2013-03-07 06:43:00,
2013-03-07 01:48:00,38.3,27.2,29.86,ENE,68,5.8,5.8,64,0.00,CLR,,0.00,WeatherDisplay:10.37,2013-03-07 06:48:00,
2013-03-07 01:53:00,38.3,27.2,29.85,NE,45,4.6,4.6,64,0.00,CLR,,0.00,WeatherDisplay:10.37,2013-03-07 06:53:00,
2013-03-07 01:58:00,38.3,27.2,29.85,East,90,4.9,4.9,64,0.00,CLR,,0.00,WeatherDisplay:10.37,2013-03-07 06:58:00,
2013-03-07 02:03:00,38.3,27.2,29.85,WSW,248,3.5,3.5,64,0.00,CLR,,0.00,WeatherDisplay:10.37,2013-03-07 07:03:00,
2013-03-07 02:08:00,38.3,27.2,29.85,ESE,112,4.6,5.2,64,0.00,CLR,,0.00,WeatherDisplay:10.37,2013-03-07 07:08:00,
2013-03-07 02:13:00,38.3,26.8,29.85,East,90,4.7,4.7,63,0.00,CLR,,0.00,WeatherDisplay:10.37,2013-03-07 07:13:00,
2013-03-07 02:18:00,38.3,27.2,29.85,North,0,6.9,6.9,64,0.00,CLR,,0.00,WeatherDisplay:10.37,2013-03-07 07:18:00,
2013-03-07 02:23:00,38.3,27.2,29.85,NNE,22,3.5,3.5,64,0.00,CLR,,0.00,WeatherDisplay:10.37,2013-03-07 07:23:00,
2013-03-07 02:28:00,38.3,27.2,29.84,ENE,68,5.8,5.8,64,0.00,CLR,,0.00,WeatherDisplay:10.37,2013-03-07 07:28:00,
2013-03-07 02:33:00,38.1,27.0,29.84,ESE,112,4.7,4.7,64,0.00,CLR,,0.00,WeatherDisplay:10.37,2013-03-07 07:33:00,
2013-03-07 02:38:00,38.1,27.0,29.84,NE,45,3.5,3.5,64,0.00,CLR,,0.00,WeatherDisplay:10.37,2013-03-07 07:38:00,
2013-03-07 02:43:00,37.9,26.8,29.84,SE,135,4.6,4.6,64,0.00,CLR,,0.00,WeatherDisplay:10.37,2013-03-07 07:43:00,
2013-03-07 02:48:00,37.9,27.2,29.84,ENE,68,4.6,4.6,65,0.00,CLR,,0.00,WeatherDisplay:10.37,2013-03-07 07:48:00,
2013-03-07 02:53:00,37.9,27.2,29.84,ENE,68,5.2,5.2,65,0.00,CLR,,0.00,WeatherDisplay:10.37,2013-03-07 07:53:00,
2013-03-07 02:58:00,37.8,27.0,29.84,ESE,112,4.6,4.6,65,0.00,CLR,,0.00,WeatherDisplay:10.37,2013-03-07 07:58:00,
2013-03-07 03:03:00,37.8,27.4,29.83,ESE,112,1.1,1.1,66,0.00,CLR,,0.00,WeatherDisplay:10.37,2013-03-07 08:03:00,
2013-03-07 03:08:00,37.8,27.4,29.84,ESE,112,4.6,4.6,66,0.00,CLR,,0.00,WeatherDisplay:10.37,2013-03-07 08:08:00,
2013-03-07 03:13:00,37.6,27.2,29.84,South,180,1.1,1.1,66,0.00,CLR,,0.00,WeatherDisplay:10.37,2013-03-07 08:13:00,
2013-03-07 03:18:00,37.6,27.2,29.84,East,90,5.8,5.8,66,0.00,CLR,,0.00,WeatherDisplay:10.37,2013-03-07 08:18:00,
2013-03-07 03:23:00,37.6,27.2,29.84,NNW,338,3.5,3.5,66,0.00,CLR,,0.00,WeatherDisplay:10.37,2013-03-07 08:23:00,
2013-03-07 03:28:00,37.4,27.1,29.84,West,270,4.7,4.7,66,0.00,CLR,,0.00,WeatherDisplay:10.37,2013-03-07 08:28:00,
2013-03-07 03:33:00,37.4,27.1,29.85,SSW,202,8.1,8.1,66,0.00,CLR,,0.00,WeatherDisplay:10.37,2013-03-07 08:33:00,
2013-03-07 03:38:00,37.4,27.1,29.85,North,0,4.6,4.6,66,0.00,CLR,,0.00,WeatherDisplay:10.37,2013-03-07 08:38:00,
2013-03-07 03:43:00,37.4,27.1,29.85,NNW,338,4.6,4.6,66,0.00,CLR,,0.00,WeatherDisplay:10.37,2013-03-07 08:43:00,
2013-03-07 03:48:00,37.4,27.1,29.85,ESE,112,4.6,4.6,66,0.00,CLR,,0.00,WeatherDisplay:10.37,2013-03-07 08:48:00,
2013-03-07 03:53:00,37.4,27.1,29.85,North,0,2.3,2.3,66,0.00,CLR,,0.00,WeatherDisplay:10.37,2013-03-07 08:53:00,
2013-03-07 03:58:00,37.4,27.1,29.86,NNE,22,5.9,5.9,66,0.00,CLR,,0.00,WeatherDisplay:10.37,2013-03-07 08:58:00,
2013-03-07 04:03:00,37.4,27.4,29.86,NNW,338,5.8,5.8,67,0.00,CLR,,0.00,WeatherDisplay:10.37,2013-03-07 09:03:00,
2013-03-07 04:08:00,37.4,27.1,29.86,SE,135,4.6,4.6,66,0.00,CLR,,0.00,WeatherDisplay:10.37,2013-03-07 09:08:00,
2013-03-07 04:13:00,37.4,27.1,29.86,ESE,112,4.6,4.6,66,0.00,CLR,,0.00,WeatherDisplay:10.37,2013-03-07 09:13:00,
2013-03-07 04:18:00,37.4,27.1,29.87,East,90,2.0,2.0,66,0.00,CLR,,0.00,WeatherDisplay:10.37,2013-03-07 09:18:00,
2013-03-07 04:23:00,37.4,27.1,29.87,NE,45,3.8,3.8,66,0.00,CLR,,0.00,WeatherDisplay:10.37,2013-03-07 09:23:00,
2013-03-07 04:28:00,37.2,26.9,29.87,North,0,2.3,2.3,66,0.00,CLR,,0.00,WeatherDisplay:10.37,2013-03-07 09:28:00,
2013-03-07 04:33:00,37.2,27.3,29.87,NE,45,2.3,2.3,67,0.00,CLR,,0.00,WeatherDisplay:10.37,2013-03-07 09:33:00,
2013-03-07 04:38:00,37.2,27.3,29.88,NW,315,4.0,4.0,67,0.00,CLR,,0.00,WeatherDisplay:10.37,2013-03-07 09:38:00,
2013-03-07 04:43:00,37.0,27.1,29.88,North,0,2.3,2.3,67,0.00,CLR,,0.00,WeatherDisplay:10.37,2013-03-07 09:43:00,
2013-03-07 04:48:00,37.0,27.1,29.87,SE,135,3.5,3.5,67,0.00,CLR,,0.00,WeatherDisplay:10.37,2013-03-07 09:48:00,
2013-03-07 04:53:00,37.0,27.1,29.88,SSE,158,4.0,4.0,67,0.00,CLR,,0.00,WeatherDisplay:10.37,2013-03-07 09:53:00,
2013-03-07 04:58:00,37.0,27.1,29.88,North,0,4.6,4.6,67,0.00,CLR,,0.00,WeatherDisplay:10.37,2013-03-07 09:58:00,
2013-03-07 05:03:00,37.0,27.1,29.88,SE,135,3.5,3.5,67,0.00,CLR,,0.00,WeatherDisplay:10.37,2013-03-07 10:03:00,
2013-03-07 05:08:00,37.0,26.7,29.88,SSE,158,2.3,4.0,66,0.00,CLR,,0.00,WeatherDisplay:10.37,2013-03-07 10:08:00,
2013-03-07 05:13:00,37.0,26.4,29.88,North,0,4.6,4.6,65,0.00,CLR,,0.00,WeatherDisplay:10.37,2013-03-07 10:13:00,
2013-03-07 05:18:00,37.2,26.5,29.89,SSE,158,4.6,4.6,65,0.00,CLR,,0.00,WeatherDisplay:10.37,2013-03-07 10:18:00,
2013-03-07 05:23:00,37.2,26.5,29.89,East,90,3.5,3.5,65,0.00,CLR,,0.00,WeatherDisplay:10.37,2013-03-07 10:23:00,
2013-03-07 05:28:00,37.2,26.5,29.89,ESE,112,5.8,5.8,65,0.00,CLR,,0.00,WeatherDisplay:10.37,2013-03-07 10:28:00,
2013-03-07 05:33:00,37.2,26.2,29.89,NNE,22,4.6,4.6,64,0.00,CLR,,0.00,WeatherDisplay:10.37,2013-03-07 10:33:00,
2013-03-07 05:38:00,37.2,26.5,29.89,East,90,2.3,2.3,65,0.00,CLR,,0.00,WeatherDisplay:10.37,2013-03-07 10:38:00,
2013-03-07 05:43:00,37.2,26.5,29.89,North,0,5.8,5.8,65,0.00,CLR,,0.00,WeatherDisplay:10.37,2013-03-07 10:43:00,
2013-03-07 05:48:00,37.0,26.4,29.89,ENE,68,4.6,4.6,65,0.00,CLR,,0.00,WeatherDisplay:10.37,2013-03-07 10:48:00,
2013-03-07 05:54:00,37.0,26.4,29.89,East,90,4.6,4.6,65,0.00,CLR,,0.00,WeatherDisplay:10.37,2013-03-07 10:54:00,
2013-03-07 05:59:00,37.0,26.4,29.90,East,90,2.3,2.3,65,0.00,CLR,,0.00,WeatherDisplay:10.37,2013-03-07 10:59:00,
2013-03-07 06:04:00,37.0,26.4,29.90,NNW,338,4.6,4.6,65,0.00,CLR,,0.00,WeatherDisplay:10.37,2013-03-07 11:04:00,
2013-03-07 06:09:00,37.0,26.4,29.90,SE,135,3.5,3.5,65,0.00,CLR,,0.00,WeatherDisplay:10.37,2013-03-07 11:09:00,
2013-03-07 06:14:00,36.9,26.6,29.90,North,0,2.4,2.4,66,0.00,CLR,,0.00,WeatherDisplay:10.37,2013-03-07 11:14:00,
2013-03-07 06:19:00,36.9,26.6,29.90,NNW,338,2.3,2.3,66,0.00,CLR,,0.00,WeatherDisplay:10.37,2013-03-07 11:19:00,
2013-03-07 06:24:00,36.7,26.7,29.90,West,270,3.3,3.3,67,0.00,CLR,,0.00,WeatherDisplay:10.37,2013-03-07 11:24:00,
2013-03-07 06:29:00,36.7,26.7,29.91,East,90,3.5,3.5,67,0.00,CLR,,0.00,WeatherDisplay:10.37,2013-03-07 11:29:00,
2013-03-07 06:34:00,36.5,26.9,29.91,North,0,2.3,2.3,68,0.00,CLR,,0.00,WeatherDisplay:10.37,2013-03-07 11:34:00,
2013-03-07 06:39:00,36.3,26.8,29.91,South,180,4.3,4.3,68,0.00,CLR,,0.00,WeatherDisplay:10.37,2013-03-07 11:39:00,
2013-03-07 06:44:00,36.3,27.1,29.91,NNW,338,2.3,2.3,69,0.00,CLR,,0.00,WeatherDisplay:10.37,2013-03-07 11:44:00,
2013-03-07 06:49:00,36.1,26.9,29.91,NNW,338,6.9,6.9,69,0.00,CLR,,0.00,WeatherDisplay:10.37,2013-03-07 11:49:00,
2013-03-07 06:54:00,36.1,27.3,29.91,ENE,68,5.8,5.8,70,0.00,CLR,,0.00,WeatherDisplay:10.37,2013-03-07 11:54:00,
2013-03-07 06:59:00,36.1,27.3,29.91,NNE,22,4.6,4.6,70,0.00,CLR,,0.00,WeatherDisplay:10.37,2013-03-07 11:59:00,
2013-03-07 07:04:00,36.0,27.1,29.91,ENE,68,3.5,3.5,70,0.00,CLR,,0.00,WeatherDisplay:10.37,2013-03-07 12:04:00,
2013-03-07 07:09:00,36.0,27.5,29.92,WSW,248,6.0,6.0,71,0.00,CLR,,0.00,WeatherDisplay:10.37,2013-03-07 12:09:00,
2013-03-07 07:14:00,35.8,28.0,29.92,ENE,68,6.9,6.9,73,0.00,CLR,,0.00,WeatherDisplay:10.37,2013-03-07 12:14:00,
2013-03-07 07:19:00,35.6,27.8,29.93,NE,45,1.6,1.6,73,0.00,CLR,,0.00,WeatherDisplay:10.37,2013-03-07 12:19:00,
2013-03-07 07:24:00,35.4,28.0,29.93,South,180,4.6,4.6,74,0.00,CLR,,0.00,WeatherDisplay:10.37,2013-03-07 12:24:00,
2013-03-07 07:29:00,35.4,28.0,29.93,ESE,112,6.9,6.9,74,0.00,CLR,,0.00,WeatherDisplay:10.37,2013-03-07 12:29:00,
2013-03-07 07:34:00,35.2,28.4,29.93,South,180,2.4,2.4,76,0.00,CLR,,0.00,WeatherDisplay:10.37,2013-03-07 12:34:00,
2013-03-07 07:39:00,35.1,28.3,29.93,North,0,2.3,2.3,76,0.00,CLR,,0.00,WeatherDisplay:10.37,2013-03-07 12:39:00,
2013-03-07 07:44:00,35.2,28.4,29.93,West,270,2.3,2.3,76,0.00,CLR,,0.00,WeatherDisplay:10.37,2013-03-07 12:44:00,
2013-03-07 07:49:00,35.2,28.4,29.93,ESE,112,2.3,2.3,76,0.00,CLR,,0.00,WeatherDisplay:10.37,2013-03-07 12:49:00,
2013-03-07 07:54:00,35.4,28.6,29.93,ESE,112,6.0,6.0,76,0.00,CLR,,0.00,WeatherDisplay:10.37,2013-03-07 12:54:00,
2013-03-07 07:59:00,35.4,28.3,29.93,East,90,1.1,1.1,75,0.00,CLR,,0.00,WeatherDisplay:10.37,2013-03-07 12:59:00,
2013-03-07 08:04:00,35.6,28.5,29.93,East,90,2.3,2.3,75,0.00,CLR,,0.00,WeatherDisplay:10.37,2013-03-07 13:04:00,
2013-03-07 08:09:00,35.6,28.8,29.93,WNW,292,2.4,2.4,76,0.00,CLR,,0.00,WeatherDisplay:10.37,2013-03-07 13:09:00,
2013-03-07 08:14:00,35.4,28.6,29.93,East,90,4.6,4.6,76,0.00,CLR,,0.00,WeatherDisplay:10.37,2013-03-07 13:14:00,
2013-03-07 08:19:00,35.4,28.3,29.93,SSE,158,2.4,2.4,75,0.00,CLR,,0.00,WeatherDisplay:10.37,2013-03-07 13:19:00,
2013-03-07 08:24:00,35.6,28.8,29.93,NE,45,3.5,3.5,76,0.00,CLR,,0.00,WeatherDisplay:10.37,2013-03-07 13:24:00,
2013-03-07 08:29:00,35.6,29.1,29.94,SSE,158,2.3,2.3,77,0.00,CLR,,0.00,WeatherDisplay:10.37,2013-03-07 13:29:00,
2013-03-07 08:34:00,35.4,29.2,29.94,ESE,112,5.8,5.8,78,0.00,CLR,,0.00,WeatherDisplay:10.37,2013-03-07 13:34:00,
2013-03-07 08:39:00,35.2,29.4,29.94,SSE,158,2.3,2.3,79,0.00,CLR,,0.00,WeatherDisplay:10.37,2013-03-07 13:39:00,
2013-03-07 08:44:00,35.2,29.4,29.94,North,0,2.3,2.3,79,0.00,CLR,,0.00,WeatherDisplay:10.37,2013-03-07 13:44:00,
2013-03-07 08:49:00,35.4,29.9,29.94,NNW,338,4.6,4.6,80,0.00,CLR,,0.00,WeatherDisplay:10.37,2013-03-07 13:49:00,
2013-03-07 08:54:00,35.4,29.9,29.94,North,0,3.5,3.5,80,0.00,CLR,,0.00,WeatherDisplay:10.37,2013-03-07 13:54:00,
2013-03-07 08:59:00,35.4,30.2,29.94,East,90,2.4,2.4,81,0.00,CLR,,0.00,WeatherDisplay:10.37,2013-03-07 13:59:00,
2013-03-07 09:04:00,35.6,30.3,29.94,ESE,112,5.8,5.8,81,0.00,CLR,,0.00,WeatherDisplay:10.37,2013-03-07 14:04:00,
2013-03-07 09:09:00,35.6,30.3,29.94,North,0,1.1,1.1,81,0.00,CLR,,0.00,WeatherDisplay:10.37,2013-03-07 14:09:00,
2013-03-07 09:14:00,36.3,30.7,29.94,ENE,68,2.4,2.4,80,0.00,CLR,,0.00,WeatherDisplay:10.37,2013-03-07 14:14:00,
2013-03-07 09:19:00,36.7,30.8,29.94,North,0,3.5,3.5,79,0.00,CLR,,0.00,WeatherDisplay:10.37,2013-03-07 14:19:00,
2013-03-07 09:24:00,36.7,30.1,29.94,East,90,2.3,2.3,77,0.00,CLR,,0.00,WeatherDisplay:10.37,2013-03-07 14:24:00,
2013-03-07 09:29:00,37.0,30.5,29.93,NNE,22,4.7,4.7,77,0.00,CLR,,0.00,WeatherDisplay:10.37,2013-03-07 14:29:00,
2013-03-07 09:34:00,37.0,29.5,29.94,NW,315,10.4,10.4,74,0.00,CLR,,0.00,WeatherDisplay:10.37,2013-03-07 14:34:00,
2013-03-07 09:39:00,37.0,29.5,29.94,NE,45,2.4,2.4,74,0.00,CLR,,0.00,WeatherDisplay:10.37,2013-03-07 14:39:00,
2013-03-07 09:44:00,37.0,29.2,29.94,North,0,4.6,4.6,73,0.00,CLR,,0.00,WeatherDisplay:10.37,2013-03-07 14:44:00,
2013-03-07 09:49:00,37.2,29.7,29.94,NNE,22,2.3,2.3,74,0.00,CLR,,0.00,WeatherDisplay:10.37,2013-03-07 14:49:00,
2013-03-07 09:54:00,37.2,29.7,29.94,NNW,338,3.5,3.5,74,0.00,CLR,,0.00,WeatherDisplay:10.37,2013-03-07 14:54:00,
2013-03-07 09:59:00,37.0,29.5,29.94,SSE,158,3.5,3.8,74,0.00,CLR,,0.00,WeatherDisplay:10.37,2013-03-07 14:59:00,
2013-03-07 10:05:00,37.2,30.0,29.94,NE,45,4.6,4.6,75,0.00,CLR,,0.00,WeatherDisplay:10.37,2013-03-07 15:05:00,
2013-03-07 10:10:00,37.4,30.5,29.94,East,90,6.9,6.9,76,0.00,CLR,,0.00,WeatherDisplay:10.37,2013-03-07 15:10:00,
2013-03-07 10:15:00,37.4,30.5,29.94,East,90,2.3,5.6,76,0.00,CLR,,0.00,WeatherDisplay:10.37,2013-03-07 15:15:00,
2013-03-07 10:20:00,37.4,30.5,29.94,NNW,338,4.6,4.6,76,0.00,CLR,,0.00,WeatherDisplay:10.37,2013-03-07 15:20:00,
2013-03-07 10:25:00,37.8,30.5,29.93,NNE,22,6.9,6.9,75,0.00,CLR,,0.00,WeatherDisplay:10.37,2013-03-07 15:25:00,
2013-03-07 10:30:00,37.6,30.7,29.93,East,90,3.6,3.6,76,0.00,CLR,,0.00,WeatherDisplay:10.37,2013-03-07 15:30:00,
2013-03-07 10:35:00,37.8,30.9,29.93,SE,135,2.3,2.3,76,0.00,CLR,,0.00,WeatherDisplay:10.37,2013-03-07 15:35:00,
2013-03-07 10:40:00,37.9,31.0,29.94,NW,315,3.5,3.5,76,0.00,CLR,,0.00,WeatherDisplay:10.37,2013-03-07 15:40:00,
2013-03-07 10:45:00,37.8,30.9,29.94,ESE,112,3.5,3.5,76,0.00,CLR,,0.00,WeatherDisplay:10.37,2013-03-07 15:45:00,
2013-03-07 10:50:00,37.6,30.7,29.94,ENE,68,4.6,4.6,76,0.00,CLR,,0.00,WeatherDisplay:10.37,2013-03-07 15:50:00,
2013-03-07 10:55:00,37.4,30.5,29.93,NE,45,4.6,4.6,76,0.00,CLR,,0.00,WeatherDisplay:10.37,2013-03-07 15:55:00,
2013-03-07 11:00:00,37.8,30.9,29.94,West,270,3.5,3.5,76,0.00,CLR,,0.00,WeatherDisplay:10.37,2013-03-07 16:00:00,
2013-03-07 11:05:00,38.1,31.5,29.94,West,270,2.3,2.3,77,0.00,CLR,,0.00,WeatherDisplay:10.37,2013-03-07 16:05:00,
2013-03-07 11:10:00,38.5,31.6,29.94,NE,45,4.6,4.6,76,0.00,CLR,,0.00,WeatherDisplay:10.37,2013-03-07 16:10:00,
2013-03-07 11:15:00,38.8,31.3,29.94,ESE,112,4.0,4.0,74,0.00,CLR,,0.00,WeatherDisplay:10.37,2013-03-07 16:15:00,
2013-03-07 11:20:00,38.5,30.6,29.94,ENE,68,4.6,4.6,73,0.00,CLR,,0.00,WeatherDisplay:10.37,2013-03-07 16:20:00,
2013-03-07 11:25:00,38.5,30.6,29.94,NNE,22,2.3,2.3,73,0.00,CLR,,0.00,WeatherDisplay:10.37,2013-03-07 16:25:00,
2013-03-07 11:30:00,38.7,30.7,29.94,ESE,112,5.8,5.8,73,0.00,CLR,,0.00,WeatherDisplay:10.37,2013-03-07 16:30:00,
2013-03-07 11:35:00,38.8,30.9,29.94,ENE,68,4.0,4.0,73,0.00,CLR,,0.00,WeatherDisplay:10.37,2013-03-07 16:35:00,
2013-03-07 11:40:00,39.2,30.9,29.94,North,0,9.2,9.2,72,0.00,CLR,,0.00,WeatherDisplay:10.37,2013-03-07 16:40:00,
2013-03-07 11:45:00,39.2,30.9,29.94,NNW,338,4.6,4.6,72,0.00,CLR,,0.00,WeatherDisplay:10.37,2013-03-07 16:45:00,
2013-03-07 11:50:00,39.2,30.9,29.94,WNW,292,4.0,4.0,72,0.00,CLR,,0.00,WeatherDisplay:10.37,2013-03-07 16:50:00,
2013-03-07 11:55:00,39.6,30.9,29.94,NNW,338,4.0,4.0,71,0.00,CLR,,0.00,WeatherDisplay:10.37,2013-03-07 16:55:00,
2013-03-07 12:00:00,39.6,31.3,29.94,SW,225,4.6,4.6,72,0.00,CLR,,0.00,WeatherDisplay:10.37,2013-03-07 17:00:00,
2013-03-07 12:05:00,39.4,31.1,29.94,NE,45,2.3,2.3,72,0.00,CLR,,0.00,WeatherDisplay:10.37,2013-03-07 17:05:00,
2013-03-07 12:10:00,39.6,31.3,29.94,ENE,68,2.3,2.3,72,0.00,CLR,,0.00,WeatherDisplay:10.37,2013-03-07 17:10:00,
2013-03-07 12:15:00,38.8,30.9,29.94,East,90,5.8,5.8,73,0.00,CLR,,0.00,WeatherDisplay:10.37,2013-03-07 17:15:00,
2013-03-07 12:20:00,38.7,31.1,29.93,NW,315,5.8,5.8,74,0.00,CLR,,0.00,WeatherDisplay:10.37,2013-03-07 17:20:00,
2013-03-07 12:26:00,38.8,31.3,29.93,NW,315,4.6,4.6,74,0.00,CLR,,0.00,WeatherDisplay:10.37,2013-03-07 17:26:00,
2013-03-07 12:31:00,39.0,31.4,29.93,NNE,22,4.0,4.0,74,0.00,CLR,,0.00,WeatherDisplay:10.37,2013-03-07 17:31:00,
2013-03-07 12:36:00,39.2,31.6,29.93,NE,45,3.5,3.5,74,0.00,CLR,,0.00,WeatherDisplay:10.37,2013-03-07 17:36:00,
2013-03-07 12:41:00,39.2,31.3,29.93,West,270,2.3,2.3,73,0.00,CLR,,0.00,WeatherDisplay:10.37,2013-03-07 17:41:00,
2013-03-07 12:46:00,39.2,31.3,29.93,NW,315,2.4,2.4,73,0.00,CLR,,0.00,WeatherDisplay:10.37,2013-03-07 17:46:00,
2013-03-07 12:51:00,39.2,31.3,29.93,East,90,4.6,4.6,73,0.00,CLR,,0.00,WeatherDisplay:10.37,2013-03-07 17:51:00,
2013-03-07 12:56:00,39.0,31.1,29.93,ESE,112,4.6,4.6,73,0.00,CLR,,0.00,WeatherDisplay:10.37,2013-03-07 17:56:00,
2013-03-07 13:01:00,39.0,31.1,29.93,East,90,3.5,3.5,73,0.00,CLR,,0.00,WeatherDisplay:10.37,2013-03-07 18:01:00,
2013-03-07 13:06:00,39.2,31.3,29.93,SSW,202,6.0,6.0,73,0.00,CLR,,0.00,WeatherDisplay:10.37,2013-03-07 18:06:00,
2013-03-07 13:11:00,39.4,31.1,29.93,North,0,4.6,4.6,72,0.00,CLR,,0.00,WeatherDisplay:10.37,2013-03-07 18:11:00,
2013-03-07 13:16:00,39.4,30.4,29.93,South,180,3.5,3.5,70,0.00,CLR,,0.00,WeatherDisplay:10.37,2013-03-07 18:16:00,
2013-03-07 13:21:00,39.6,30.6,29.93,NNW,338,4.6,4.6,70,0.00,CLR,,0.00,WeatherDisplay:10.37,2013-03-07 18:21:00,
2013-03-07 13:26:00,39.6,30.2,29.93,North,0,2.3,2.3,69,0.00,CLR,,0.00,WeatherDisplay:10.37,2013-03-07 18:26:00,
2013-03-07 13:31:00,39.6,30.6,29.93,NE,45,5.8,5.8,70,0.00,CLR,,0.00,WeatherDisplay:10.37,2013-03-07 18:31:00,
2013-03-07 13:36:00,39.6,30.2,29.93,North,0,4.6,4.6,69,0.00,CLR,,0.00,WeatherDisplay:10.37,2013-03-07 18:36:00,
2013-03-07 13:41:00,39.6,30.2,29.93,NW,315,2.3,2.3,69,0.00,CLR,,0.00,WeatherDisplay:10.37,2013-03-07 18:41:00,
2013-03-07 13:46:00,39.4,30.4,29.93,ESE,112,4.6,4.6,70,0.00,CLR,,0.00,WeatherDisplay:10.37,2013-03-07 18:46:00,
2013-03-07 13:51:00,39.6,30.9,29.93,NNW,338,3.8,3.8,71,0.00,CLR,,0.00,WeatherDisplay:10.37,2013-03-07 18:51:00,
2013-03-07 13:56:00,39.6,30.9,29.93,NNE,22,3.5,3.5,71,0.00,CLR,,0.00,WeatherDisplay:10.37,2013-03-07 18:56:00,
2013-03-07 14:01:00,39.4,30.8,29.93,NE,45,2.3,2.3,71,0.00,CLR,,0.00,WeatherDisplay:10.37,2013-03-07 19:01:00,
2013-03-07 14:06:00,39.4,31.4,29.93,NE,45,2.3,2.3,73,0.00,CLR,,0.00,WeatherDisplay:10.37,2013-03-07 19:06:00,
2013-03-07 14:11:00,39.4,31.4,29.94,West,270,2.3,2.3,73,0.00,CLR,,0.00,WeatherDisplay:10.37,2013-03-07 19:11:00,
2013-03-07 14:16:00,39.2,31.3,29.94,West,270,2.3,2.3,73,0.00,CLR,,0.00,WeatherDisplay:10.37,2013-03-07 19:16:00,
2013-03-07 14:21:00,39.2,31.6,29.94,East,90,2.3,2.3,74,0.00,CLR,,0.00,WeatherDisplay:10.37,2013-03-07 19:21:00,
2013-03-07 14:28:00,38.8,31.9,29.94,NNE,22,3.5,3.5,76,0.00,CLR,,0.00,WeatherDisplay:10.37,2013-03-07 19:28:00,
2013-03-07 14:33:00,38.5,31.6,29.94,NNE,22,3.5,3.5,76,0.00,CLR,,0.00,WeatherDisplay:10.37,2013-03-07 19:33:00,
2013-03-07 14:38:00,38.5,31.9,29.94,North,0,2.4,2.4,77,0.00,CLR,,0.00,WeatherDisplay:10.37,2013-03-07 19:38:00,
2013-03-07 14:43:00,38.5,31.9,29.94,North,0,2.3,2.3,77,0.00,CLR,,0.00,WeatherDisplay:10.37,2013-03-07 19:43:00,
2013-03-07 14:48:00,38.7,32.1,29.95,NW,315,2.3,2.3,77,0.00,CLR,,0.00,WeatherDisplay:10.37,2013-03-07 19:48:00,
2013-03-07 14:53:00,38.5,32.5,29.95,ENE,68,2.4,2.4,79,0.00,CLR,,0.00,WeatherDisplay:10.37,2013-03-07 19:53:00,
2013-03-07 14:58:00,38.3,32.0,29.95,North,0,2.3,2.3,78,0.00,CLR,,0.00,WeatherDisplay:10.37,2013-03-07 19:58:00,
2013-03-07 15:03:00,38.1,32.2,29.95,West,270,2.3,2.3,79,0.00,CLR,,0.00,WeatherDisplay:10.37,2013-03-07 20:03:00,
2013-03-07 15:08:00,37.8,32.1,29.95,ENE,68,3.5,3.5,80,0.00,CLR,,0.00,WeatherDisplay:10.37,2013-03-07 20:08:00,
2013-03-07 15:13:00,37.9,32.6,29.96,West,270,1.1,1.1,81,0.00,CLR,,0.00,WeatherDisplay:10.37,2013-03-07 20:13:00,
2013-03-07 15:18:00,37.9,32.3,29.96,ENE,68,2.3,2.3,80,0.01,RA,,0.01,WeatherDisplay:10.37,2013-03-07 20:18:00,
2013-03-07 15:23:00,37.9,32.9,29.96,NNW,338,2.3,2.3,82,0.01,RA,,0.01,WeatherDisplay:10.37,2013-03-07 20:23:00,
2013-03-07 15:28:00,37.6,32.6,29.96,East,90,3.5,3.5,82,0.01,,,0.01,WeatherDisplay:10.37,2013-03-07 20:28:00,
2013-03-07 15:33:00,37.0,32.7,29.96,West,270,3.5,3.5,84,0.01,CLR,,0.01,WeatherDisplay:10.37,2013-03-07 20:33:00,
2013-03-07 15:38:00,37.0,32.7,29.96,NNW,338,2.0,2.0,84,0.01,CLR,,0.01,WeatherDisplay:10.37,2013-03-07 20:38:00,
2013-03-07 15:43:00,37.0,32.7,29.96,WNW,292,2.3,2.3,84,0.01,CLR,,0.01,WeatherDisplay:10.37,2013-03-07 20:43:00,
2013-03-07 15:48:00,36.7,32.6,29.96,NNE,22,2.3,2.3,85,0.02,RA,,0.02,WeatherDisplay:10.37,2013-03-07 20:48:00,
2013-03-07 15:53:00,36.5,32.4,29.96,SW,225,2.3,2.3,85,0.02,RA,,0.02,WeatherDisplay:10.37,2013-03-07 20:53:00,
2013-03-07 15:58:00,36.5,32.7,29.97,South,180,2.3,2.3,86,0.02,,,0.02,WeatherDisplay:10.37,2013-03-07 20:58:00,
2013-03-07 16:03:00,36.3,32.5,29.97,WSW,248,2.3,2.3,86,0.02,CLR,,0.02,WeatherDisplay:10.37,2013-03-07 21:03:00,
2013-03-07 16:08:00,36.5,32.7,29.97,NNW,338,1.1,1.1,86,0.02,CLR,,0.02,WeatherDisplay:10.37,2013-03-07 21:08:00,
2013-03-07 16:13:00,36.3,32.8,29.97,ENE,68,2.3,2.3,87,0.03,RA,,0.03,WeatherDisplay:10.37,2013-03-07 21:13:00,
2013-03-07 16:18:00,36.1,32.4,29.97,NNW,338,1.1,1.1,86,0.02,RA,,0.03,WeatherDisplay:10.37,2013-03-07 21:18:00,
2013-03-07 16:23:00,36.0,32.5,29.97,North,0,1.1,1.1,87,0.02,,,0.03,WeatherDisplay:10.37,2013-03-07 21:23:00,
2013-03-07 16:28:00,36.0,32.5,29.97,NNW,338,3.6,3.6,87,0.03,RA,,0.04,WeatherDisplay:10.37,2013-03-07 21:28:00,
2013-03-07 16:33:00,36.1,32.6,29.97,SE,135,1.1,1.1,87,0.03,RA,,0.04,WeatherDisplay:10.37,2013-03-07 21:33:00,
2013-03-07 16:38:00,36.0,32.8,29.97,East,90,1.1,2.0,88,0.03,,,0.04,WeatherDisplay:10.37,2013-03-07 21:38:00,
2013-03-07 16:43:00,35.8,32.3,29.98,WSW,248,1.1,1.1,87,0.03,CLR,,0.04,WeatherDisplay:10.37,2013-03-07 21:43:00,
2013-03-07 16:48:00,35.8,32.3,29.98,ESE,112,3.6,3.6,87,0.03,RA,,0.05,WeatherDisplay:10.37,2013-03-07 21:48:00,
2013-03-07 16:53:00,35.6,32.1,29.98,NW,315,1.1,1.1,87,0.03,RA,,0.05,WeatherDisplay:10.37,2013-03-07 21:53:00,
2013-03-07 16:58:00,35.4,32.2,29.98,NE,45,3.5,3.5,88,0.03,,,0.05,WeatherDisplay:10.37,2013-03-07 21:58:00,
2013-03-07 17:03:00,35.2,31.8,29.98,SW,225,1.1,1.1,87,0.04,RA,,0.06,WeatherDisplay:10.37,2013-03-07 22:03:00,
2013-03-07 17:09:00,35.2,32.0,29.98,East,90,1.1,1.1,88,0.04,RA,,0.06,WeatherDisplay:10.37,2013-03-07 22:09:00,
2013-03-07 17:14:00,35.2,32.0,29.99,SE,135,2.3,2.3,88,0.03,,,0.06,WeatherDisplay:10.37,2013-03-07 22:14:00,
2013-03-07 17:19:00,35.1,31.9,29.98,SE,135,0.9,0.9,88,0.03,CLR,,0.06,WeatherDisplay:10.37,2013-03-07 22:19:00,
2013-03-07 17:24:00,34.9,31.7,29.99,NNW,338,1.4,1.4,88,0.03,CLR,,0.07,WeatherDisplay:10.37,2013-03-07 22:24:00,
2013-03-07 17:29:00,34.7,31.5,29.99,North,0,1.1,1.1,88,0.03,RA,,0.07,WeatherDisplay:10.37,2013-03-07 22:29:00,
2013-03-07 17:34:00,34.5,31.3,29.99,SE,135,1.1,1.1,88,0.03,RA,,0.07,WeatherDisplay:10.37,2013-03-07 22:34:00,
2013-03-07 17:39:00,34.3,30.9,29.99,WSW,248,0.0,0.5,87,0.03,CLR,,0.07,WeatherDisplay:10.37,2013-03-07 22:39:00,
2013-03-07 17:44:00,34.3,30.9,29.99,NNW,338,1.1,1.1,87,0.03,CLR,,0.07,WeatherDisplay:10.37,2013-03-07 22:44:00,
2013-03-07 17:49:00,34.2,31.0,30.00,ESE,112,0.5,0.5,88,0.02,CLR,,0.07,WeatherDisplay:10.37,2013-03-07 22:49:00,
2013-03-07 17:54:00,34.2,31.0,30.00,West,270,1.1,1.1,88,0.02,CLR,,0.07,WeatherDisplay:10.37,2013-03-07 22:54:00,
2013-03-07 17:59:00,34.0,30.5,30.00,East,90,1.1,1.1,87,0.02,CLR,,0.07,WeatherDisplay:10.37,2013-03-07 22:59:00,
2013-03-07 18:04:00,34.0,30.5,30.00,ENE,68,0.2,0.2,87,0.02,RA,,0.08,WeatherDisplay:10.37,2013-03-07 23:04:00,
2013-03-07 18:09:00,33.8,30.6,30.00,NNE,22,0.0,0.0,88,0.02,RA,,0.08,WeatherDisplay:10.37,2013-03-07 23:09:00,
2013-03-07 18:14:00,33.8,30.6,30.00,North,0,0.0,0.0,88,0.02,CLR,,0.08,WeatherDisplay:10.37,2013-03-07 23:14:00,
2013-03-07 18:19:00,33.8,30.3,30.00,NW,315,0.0,0.0,87,0.02,CLR,,0.08,WeatherDisplay:10.37,2013-03-07 23:19:00,
2013-03-07 18:24:00,33.8,30.3,30.00,North,0,0.0,0.0,87,0.02,CLR,,0.08,WeatherDisplay:10.37,2013-03-07 23:24:00,
2013-03-07 18:29:00,33.6,30.4,30.00,North,0,0.0,0.0,88,0.01,CLR,,0.08,WeatherDisplay:10.37,2013-03-07 23:29:00,
2013-03-07 18:34:00,33.6,30.4,30.00,NE,45,1.1,1.1,88,0.01,CLR,,0.08,WeatherDisplay:10.37,2013-03-07 23:34:00,
2013-03-07 18:39:00,33.6,30.4,30.00,NNE,22,0.0,0.5,88,0.01,CLR,,0.08,WeatherDisplay:10.37,2013-03-07 23:39:00,
2013-03-07 18:44:00,33.6,30.7,30.00,ESE,112,0.2,0.2,89,0.01,CLR,,0.08,WeatherDisplay:10.37,2013-03-07 23:44:00,
2013-03-07 18:49:00,33.4,30.3,30.00,East,90,0.5,0.5,88,0.01,CLR,,0.08,WeatherDisplay:10.37,2013-03-07 23:49:00,
2013-03-07 18:54:00,33.6,30.4,30.00,East,90,0.2,0.2,88,0.01,CLR,,0.08,WeatherDisplay:10.37,2013-03-07 23:54:00,
2013-03-07 18:59:00,33.4,30.5,30.00,East,90,1.1,0.0,89,0.01,CLR,,0.08,WeatherDisplay:10.37,2013-03-07 23:59:00,
2013-03-07 19:04:00,33.4,30.5,30.00,NNE,22,1.1,1.1,89,0.00,CLR,,0.08,WeatherDisplay:10.37,2013-03-08 00:04:00,
2013-03-07 19:09:00,33.4,30.5,30.00,NE,45,1.4,1.4,89,0.01,RA,,0.09,WeatherDisplay:10.37,2013-03-08 00:09:00,
2013-03-07 19:14:00,33.4,30.3,30.00,NNW,338,0.2,0.2,88,0.01,RA,,0.09,WeatherDisplay:10.37,2013-03-08 00:14:00,
2013-03-07 19:19:00,33.4,30.5,30.00,North,0,0.0,0.0,89,0.01,,,0.09,WeatherDisplay:10.37,2013-03-08 00:19:00,
2013-03-07 19:24:00,33.6,30.7,30.00,East,90,0.7,0.7,89,0.01,CLR,,0.09,WeatherDisplay:10.37,2013-03-08 00:24:00,
2013-03-07 19:29:00,33.4,30.5,30.00,ENE,68,0.0,0.0,89,0.01,CLR,,0.09,WeatherDisplay:10.37,2013-03-08 00:29:00,
2013-03-07 19:34:00,33.4,30.3,30.00,ENE,68,0.0,0.0,88,0.01,CLR,,0.09,WeatherDisplay:10.37,2013-03-08 00:34:00,
2013-03-07 19:39:00,33.6,30.4,30.00,East,90,0.0,0.2,88,0.01,CLR,,0.09,WeatherDisplay:10.37,2013-03-08 00:39:00,
2013-03-07 19:44:00,33.6,30.7,30.00,NE,45,0.0,0.0,89,0.01,CLR,,0.09,WeatherDisplay:10.37,2013-03-08 00:44:00,
2013-03-07 19:49:00,33.6,30.7,30.00,East,90,1.1,1.1,89,0.01,CLR,,0.09,WeatherDisplay:10.37,2013-03-08 00:49:00,
2013-03-07 19:54:00,33.6,30.7,30.00,SE,135,0.0,0.5,89,0.01,CLR,,0.09,WeatherDisplay:10.37,2013-03-08 00:54:00,
2013-03-07 19:59:00,33.6,30.7,30.00,ESE,112,0.2,0.2,89,0.01,CLR,,0.09,WeatherDisplay:10.37,2013-03-08 00:59:00,
2013-03-07 20:04:00,33.6,30.7,30.00,NE,45,0.0,0.0,89,0.01,CLR,,0.09,WeatherDisplay:10.37,2013-03-08 01:04:00,
2013-03-07 20:09:00,33.6,30.7,30.00,South,180,0.5,0.5,89,0.00,CLR,,0.09,WeatherDisplay:10.37,2013-03-08 01:09:00,
2013-03-07 20:15:00,33.6,30.7,30.00,East,90,1.1,1.1,89,0.00,CLR,,0.09,WeatherDisplay:10.37,2013-03-08 01:15:00,
2013-03-07 20:20:00,33.4,30.5,30.00,South,180,0.5,0.5,89,0.01,RA,,0.10,WeatherDisplay:10.37,2013-03-08 01:20:00,
2013-03-07 20:25:00,33.4,30.5,30.00,SE,135,0.0,0.0,89,0.01,RA,,0.10,WeatherDisplay:10.37,2013-03-08 01:25:00,
2013-03-07 20:30:00,33.4,30.5,30.00,NNW,338,0.0,0.0,89,0.01,CLR,,0.10,WeatherDisplay:10.37,2013-03-08 01:30:00,
2013-03-07 20:35:00,33.4,30.5,30.00,NE,45,0.0,0.0,89,0.01,CLR,,0.10,WeatherDisplay:10.37,2013-03-08 01:35:00,
2013-03-07 20:40:00,33.4,30.5,30.00,NE,45,1.1,1.1,89,0.01,CLR,,0.10,WeatherDisplay:10.37,2013-03-08 01:40:00,
2013-03-07 20:45:00,33.4,30.8,30.00,North,0,1.1,1.1,90,0.01,CLR,,0.10,WeatherDisplay:10.37,2013-03-08 01:45:00,
2013-03-07 20:50:00,33.4,30.8,29.99,NNW,338,0.0,0.0,90,0.01,CLR,,0.10,WeatherDisplay:10.37,2013-03-08 01:50:00,
2013-03-07 20:55:00,33.4,30.8,29.99,NNE,22,0.0,0.0,90,0.01,CLR,,0.10,WeatherDisplay:10.37,2013-03-08 01:55:00,
2013-03-07 21:00:00,33.4,30.8,29.99,ENE,68,1.1,1.1,90,0.01,CLR,,0.10,WeatherDisplay:10.37,2013-03-08 02:00:00,
2013-03-07 21:05:00,33.4,30.8,29.99,NNE,22,0.0,0.0,90,0.02,RA,,0.11,WeatherDisplay:10.37,2013-03-08 02:05:00,
2013-03-07 21:10:00,33.4,30.8,29.99,NE,45,0.0,0.0,90,0.02,RA,,0.11,WeatherDisplay:10.37,2013-03-08 02:10:00,
2013-03-07 21:15:00,33.4,30.8,29.99,North,0,0.0,0.2,90,0.02,RA,,0.11,WeatherDisplay:10.37,2013-03-08 02:15:00,
2013-03-07 21:20:00,33.4,30.8,29.99,WSW,248,0.5,0.5,90,0.01,CLR,,0.11,WeatherDisplay:10.37,2013-03-08 02:20:00,
2013-03-07 21:25:00,33.4,30.8,29.99,East,90,0.0,0.0,90,0.01,CLR,,0.11,WeatherDisplay:10.37,2013-03-08 02:25:00,
2013-03-07 21:30:00,33.4,30.8,29.99,ESE,112,1.1,1.1,90,0.01,CLR,,0.11,WeatherDisplay:10.37,2013-03-08 02:30:00,
2013-03-07 21:35:00,33.4,31.1,29.98,ESE,112,0.5,0.5,91,0.01,CLR,,0.11,WeatherDisplay:10.37,2013-03-08 02:35:00,
2013-03-07 21:40:00,33.4,30.8,29.98,North,0,0.5,0.5,90,0.01,CLR,,0.11,WeatherDisplay:10.37,2013-03-08 02:40:00,
2013-03-07 21:45:00,33.3,30.6,29.98,North,0,0.5,0.5,90,0.01,CLR,,0.11,WeatherDisplay:10.37,2013-03-08 02:45:00,
2013-03-07 21:50:00,33.4,30.8,29.98,ENE,68,0.2,0.2,90,0.01,CLR,,0.11,WeatherDisplay:10.37,2013-03-08 02:50:00,
2013-03-07 21:55:00,33.3,30.6,29.98,South,180,0.2,0.2,90,0.01,CLR,,0.11,WeatherDisplay:10.37,2013-03-08 02:55:00,
2013-03-07 22:00:00,33.3,30.9,29.98,NNE,22,0.5,0.5,91,0.01,CLR,,0.11,WeatherDisplay:10.37,2013-03-08 03:00:00,
2013-03-07 22:05:00,33.3,30.6,29.98,NNE,22,0.0,0.0,90,0.00,CLR,,0.11,WeatherDisplay:10.37,2013-03-08 03:05:00,
2013-03-07 22:10:00,33.1,30.5,29.98,NNE,22,0.0,0.0,90,0.00,CLR,,0.11,WeatherDisplay:10.37,2013-03-08 03:10:00,
2013-03-07 22:15:00,33.1,30.5,29.98,NE,45,0.0,0.0,90,0.00,CLR,,0.11,WeatherDisplay:10.37,2013-03-08 03:15:00,
2013-03-07 22:20:00,33.1,30.5,29.98,NNW,338,0.0,0.0,90,0.00,CLR,,0.11,WeatherDisplay:10.37,2013-03-08 03:20:00,
2013-03-07 22:25:00,33.1,30.5,29.98,NNW,338,0.0,0.0,90,0.00,CLR,,0.11,WeatherDisplay:10.37,2013-03-08 03:25:00,
2013-03-07 22:30:00,33.1,30.5,29.98,East,90,1.1,1.1,90,0.00,CLR,,0.11,WeatherDisplay:10.37,2013-03-08 03:30:00,
2013-03-07 22:35:00,33.1,30.5,29.98,NNW,338,0.0,0.0,90,0.01,RA,,0.12,WeatherDisplay:10.37,2013-03-08 03:35:00,
2013-03-07 22:40:00,33.1,30.5,29.98,NNE,22,0.2,0.2,90,0.01,RA,,0.12,WeatherDisplay:10.37,2013-03-08 03:40:00,
2013-03-07 22:45:00,33.1,30.5,29.98,North,0,0.0,0.0,90,0.01,,,0.12,WeatherDisplay:10.37,2013-03-08 03:45:00,
2013-03-07 22:50:00,33.1,30.7,29.98,South,180,0.0,0.0,91,0.01,CLR,,0.12,WeatherDisplay:10.37,2013-03-08 03:50:00,
2013-03-07 22:55:00,33.1,30.5,29.98,South,180,0.5,0.5,90,0.01,CLR,,0.12,WeatherDisplay:10.37,2013-03-08 03:55:00,
2013-03-07 23:00:00,33.1,30.7,29.98,South,180,1.1,1.1,91,0.01,CLR,,0.12,WeatherDisplay:10.37,2013-03-08 04:00:00,
2013-03-07 23:05:00,33.1,30.7,29.98,South,180,0.2,0.2,91,0.01,CLR,,0.12,WeatherDisplay:10.37,2013-03-08 04:05:00,
2013-03-07 23:10:00,33.1,30.7,29.98,South,180,1.1,0.0,91,0.01,CLR,,0.12,WeatherDisplay:10.37,2013-03-08 04:10:00,
2013-03-07 23:15:00,33.1,30.7,29.98,South,180,1.1,0.0,91,0.01,CLR,,0.12,WeatherDisplay:10.37,2013-03-08 04:15:00,
2013-03-07 23:20:00,32.9,30.6,29.98,South,180,1.1,1.1,91,0.01,CLR,,0.12,WeatherDisplay:10.37,2013-03-08 04:20:00,
2013-03-07 23:25:00,32.9,30.6,29.98,South,180,0.5,0.5,91,0.01,CLR,,0.12,WeatherDisplay:10.37,2013-03-08 04:25:00,
2013-03-07 23:30:00,32.9,30.6,29.98,South,180,1.1,0.0,91,0.01,CLR,,0.12,WeatherDisplay:10.37,2013-03-08 04:30:00,
2013-03-07 23:35:00,32.9,30.6,29.97,South,180,1.1,1.1,91,0.00,CLR,,0.12,WeatherDisplay:10.37,2013-03-08 04:35:00,
2013-03-07 23:40:00,32.9,30.6,29.97,South,180,1.1,0.0,91,0.00,CLR,,0.12,WeatherDisplay:10.37,2013-03-08 04:40:00,
2013-03-07 23:45:00,32.9,30.6,29.97,South,180,0.2,0.2,91,0.00,CLR,,0.12,WeatherDisplay:10.37,2013-03-08 04:45:00,
2013-03-07 23:50:00,32.9,30.6,29.97,South,180,0.0,0.0,91,0.00,CLR,,0.12,WeatherDisplay:10.37,2013-03-08 04:50:00,
2013-03-07 23:55:00,32.9,30.6,29.97,South,180,0.0,0.0,91,0.00,CLR,,0.12,WeatherDisplay:10.37,2013-03-08 04:55:00,